Torna al catalogo

COSMOS 1823 DEB

AttivoLEO
NORAD 29356·DEBRIS·🇷🇺 Russia

Lanciato Feb 20, 1987 da Plesetsk Cosmodrome

Loading…

Prossimi Passaggi (prossime 24 ore)

TLE

ObsoletoSource: Space-Track

Epoca: Aug 30, 2026, 20:19 UTC

1 29356U 87020DX  26242.84699139 -.00000582  00000-0 -38870-2 0  9992
2 29356  73.6476 295.8892 0041673 333.0461 145.6380 12.46272528590958

Traccia COSMOS 1823 DEB in tempo reale con AllMySat

Download on the App Store